TimeEST,TemperatureF,Dew PointF,Humidity,Sea Level PressureIn,VisibilityMPH,Wind Direction,Wind SpeedMPH,Gust SpeedMPH,PrecipitationIn,Events,Conditions,WindDirDegrees,DateUTC
12:15 AM,33.8,32.0,93,30.00,10.0,Calm,Calm,-,N/A,,Overcast,0,2012-12-29 05:15:00
12:35 AM,33.8,32.0,93,29.98,10.0,Calm,Calm,-,N/A,,Overcast,0,2012-12-29 05:35:00
12:55 AM,33.8,32.0,93,29.97,10.0,Calm,Calm,-,N/A,,Mostly Cloudy,0,2012-12-29 05:55:00
1:15 AM,35.6,32.0,87,29.98,10.0,Calm,Calm,-,N/A,,Overcast,0,2012-12-29 06:15:00
1:35 AM,35.6,32.0,87,29.99,10.0,Calm,Calm,-,N/A,,Overcast,0,2012-12-29 06:35:00
1:55 AM,35.6,32.0,87,30.00,10.0,Calm,Calm,-,N/A,,Overcast,0,2012-12-29 06:55:00
2:15 AM,35.6,32.0,87,29.97,10.0,Calm,Calm,-,N/A,,Overcast,0,2012-12-29 07:15:00
2:35 AM,35.6,32.0,87,29.97,10.0,Calm,Calm,-,N/A,,Overcast,0,2012-12-29 07:35:00
2:55 AM,35.6,32.0,87,29.96,10.0,Calm,Calm,-,N/A,,Overcast,0,2012-12-29 07:55:00
3:15 AM,35.6,32.0,87,29.95,10.0,Calm,Calm,-,N/A,,Overcast,0,2012-12-29 08:15:00
3:35 AM,35.6,32.0,87,29.94,10.0,Calm,Calm,-,N/A,,Overcast,0,2012-12-29 08:35:00
3:55 AM,35.6,32.0,87,29.92,10.0,Calm,Calm,-,N/A,Rain,Light Rain,0,2012-12-29 08:55:00
4:15 AM,35.6,33.8,93,29.90,10.0,Calm,Calm,-,N/A,Rain,Light Rain,0,2012-12-29 09:15:00
4:35 AM,35.6,33.8,93,29.89,7.0,Calm,Calm,-,0.02,Rain,Rain,0,2012-12-29 09:35:00
4:55 AM,35.6,33.8,93,29.86,7.0,Calm,Calm,-,0.03,Rain,Rain,0,2012-12-29 09:55:00
5:15 AM,35.6,35.6,100,29.83,5.0,SE,6.9,-,0.02,Rain,Rain,130,2012-12-29 10:15:00
5:35 AM,35.6,35.6,100,29.82,4.0,SSE,8.1,-,0.06,Rain,Rain,150,2012-12-29 10:35:00
5:55 AM,35.6,35.6,100,29.76,5.0,ESE,11.5,-,0.07,Rain,Light Rain,120,2012-12-29 10:55:00
6:15 AM,35.6,35.6,100,29.77,7.0,Calm,Calm,-,N/A,Rain,Rain,0,2012-12-29 11:15:00
6:35 AM,35.6,35.6,100,29.77,10.0,Calm,Calm,-,N/A,,Overcast,0,2012-12-29 11:35:00
6:55 AM,35.6,35.6,100,29.77,7.0,Calm,Calm,-,N/A,,Overcast,0,2012-12-29 11:55:00
7:15 AM,35.6,35.6,100,29.76,7.0,Calm,Calm,-,N/A,,Overcast,0,2012-12-29 12:15:00
7:35 AM,35.6,35.6,100,29.77,7.0,Calm,Calm,-,N/A,,Overcast,0,2012-12-29 12:35:00
7:55 AM,35.6,35.6,100,29.77,5.0,Calm,Calm,-,N/A,,Overcast,0,2012-12-29 12:55:00
8:15 AM,35.6,35.6,100,29.77,4.0,Calm,Calm,-,N/A,,Overcast,0,2012-12-29 13:15:00
8:35 AM,35.6,35.6,100,29.79,4.0,NW,4.6,-,N/A,,Overcast,310,2012-12-29 13:35:00
8:55 AM,35.6,35.6,100,29.79,1.2,Calm,Calm,-,N/A,,Heavy Drizzle,0,2012-12-29 13:55:00
9:15 AM,35.6,35.6,100,29.79,1.8,NW,3.5,-,N/A,,Drizzle,320,2012-12-29 14:15:00
9:35 AM,35.6,35.6,100,29.78,2.0,NW,3.5,-,N/A,,Light Drizzle,320,2012-12-29 14:35:00
9:55 AM,37.4,37.4,100,29.77,2.5,NW,3.5,-,N/A,,Overcast,310,2012-12-29 14:55:00
10:15 AM,37.4,37.4,100,29.77,4.0,NW,3.5,-,N/A,,Overcast,310,2012-12-29 15:15:00
10:35 AM,37.4,37.4,100,29.75,5.0,Calm,Calm,-,N/A,,Overcast,0,2012-12-29 15:35:00
10:55 AM,37.4,37.4,100,29.74,5.0,West,3.5,-,N/A,,Overcast,280,2012-12-29 15:55:00
11:15 AM,37.4,37.4,100,29.73,5.0,NW,4.6,-,N/A,,Overcast,310,2012-12-29 16:15:00
11:35 AM,39.2,39.2,100,29.73,5.0,WNW,4.6,-,N/A,,Overcast,300,2012-12-29 16:35:00
11:55 AM,41.0,41.0,100,29.72,7.0,West,8.1,-,N/A,,Overcast,270,2012-12-29 16:55:00
12:15 PM,41.0,41.0,100,29.71,7.0,West,5.8,-,N/A,,Overcast,280,2012-12-29 17:15:00
12:35 PM,41.0,41.0,100,29.70,10.0,WNW,6.9,-,N/A,,Overcast,290,2012-12-29 17:35:00
12:55 PM,42.8,41.0,93,29.68,10.0,Calm,Calm,-,N/A,,Overcast,0,2012-12-29 17:55:00
1:15 PM,44.6,41.0,87,29.67,10.0,West,8.1,-,N/A,,Overcast,260,2012-12-29 18:15:00
1:35 PM,46.4,41.0,81,29.67,10.0,WNW,5.8,-,N/A,,Scattered Clouds,300,2012-12-29 18:35:00
1:55 PM,48.2,41.0,76,29.67,10.0,West,8.1,-,N/A,,Clear,280,2012-12-29 18:55:00
2:15 PM,50.0,37.4,62,29.66,10.0,West,11.5,19.6,N/A,,Scattered Clouds,280,2012-12-29 19:15:00
2:35 PM,50.0,35.6,58,29.66,10.0,WNW,9.2,17.3,N/A,,Mostly Cloudy,290,2012-12-29 19:35:00
2:55 PM,50.0,35.6,58,29.67,10.0,WNW,11.5,19.6,N/A,,Overcast,290,2012-12-29 19:55:00
3:15 PM,50.0,35.6,58,29.67,10.0,WNW,13.8,21.9,N/A,,Overcast,300,2012-12-29 20:15:00
3:35 PM,50.0,33.8,54,29.68,10.0,NW,8.1,-,N/A,,Mostly Cloudy,310,2012-12-29 20:35:00
3:55 PM,50.0,32.0,50,29.69,10.0,WNW,9.2,26.5,N/A,,Mostly Cloudy,300,2012-12-29 20:55:00
4:15 PM,48.2,32.0,54,29.70,10.0,West,8.1,16.1,N/A,,Mostly Cloudy,270,2012-12-29 21:15:00
4:35 PM,46.4,32.0,57,29.70,10.0,WNW,8.1,-,N/A,,Scattered Clouds,290,2012-12-29 21:35:00
4:55 PM,46.4,32.0,57,29.72,10.0,WNW,9.2,-,N/A,,Scattered Clouds,300,2012-12-29 21:55:00
5:15 PM,44.6,32.0,61,29.73,10.0,WNW,9.2,-,N/A,,Scattered Clouds,300,2012-12-29 22:15:00
5:35 PM,44.6,32.0,61,29.74,10.0,WNW,6.9,20.7,N/A,,Mostly Cloudy,300,2012-12-29 22:35:00
5:55 PM,44.6,30.2,57,29.76,10.0,NW,8.1,20.7,N/A,,Overcast,320,2012-12-29 22:55:00
6:15 PM,44.6,30.2,57,29.78,10.0,NW,8.1,20.7,N/A,,Overcast,310,2012-12-29 23:15:00
6:35 PM,42.8,30.2,61,29.79,10.0,WNW,8.1,16.1,N/A,,Scattered Clouds,300,2012-12-29 23:35:00
6:55 PM,42.8,30.2,61,29.80,10.0,NW,12.7,19.6,N/A,,Clear,310,2012-12-29 23:55:00
7:15 PM,42.8,28.4,57,29.82,10.0,NW,10.4,19.6,N/A,,Scattered Clouds,310,2012-12-30 00:15:00
7:35 PM,41.0,28.4,61,29.83,10.0,NW,10.4,20.7,N/A,,Scattered Clouds,320,2012-12-30 00:35:00
7:55 PM,41.0,28.4,61,29.84,10.0,WNW,8.1,-,N/A,,Mostly Cloudy,300,2012-12-30 00:55:00
8:15 PM,41.0,28.4,61,29.85,10.0,NW,9.2,-,N/A,,Overcast,310,2012-12-30 01:15:00
8:35 PM,41.0,28.4,61,29.86,10.0,WNW,13.8,23.0,N/A,,Overcast,300,2012-12-30 01:35:00
8:55 PM,41.0,28.4,61,29.87,10.0,WNW,6.9,23.0,N/A,,Overcast,290,2012-12-30 01:55:00
9:15 PM,41.0,28.4,61,29.87,10.0,NW,9.2,-,N/A,,Overcast,310,2012-12-30 02:15:00
9:35 PM,41.0,28.4,61,29.88,10.0,WNW,11.5,23.0,N/A,,Overcast,300,2012-12-30 02:35:00
9:55 PM,41.0,28.4,61,29.89,10.0,WNW,12.7,18.4,N/A,,Overcast,290,2012-12-30 02:55:00
10:15 PM,41.0,28.4,61,29.91,10.0,NW,5.8,16.1,N/A,,Overcast,310,2012-12-30 03:15:00
10:35 PM,41.0,28.4,61,29.92,10.0,WNW,9.2,19.6,N/A,,Overcast,300,2012-12-30 03:35:00
10:55 PM,39.2,26.6,61,29.93,10.0,WNW,9.2,23.0,N/A,,Mostly Cloudy,300,2012-12-30 03:55:00
11:15 PM,37.4,26.6,65,29.94,10.0,NW,6.9,19.6,N/A,,Scattered Clouds,310,2012-12-30 04:15:00
11:35 PM,37.4,26.6,65,29.95,10.0,WNW,5.8,18.4,N/A,,Clear,300,2012-12-30 04:35:00
11:55 PM,37.4,26.6,65,29.96,10.0,West,5.8,19.6,N/A,,Clear,280,2012-12-30 04:55:00